Weather History for Lynchburg, VA

Change the Weather History Date:

Saturday, October 27, 2012

  Actual Average Record
Temperature  
Mean Temperature 63 °F 53 °F  
Max Temperature 68 °F 66 °F 87 °F (1919)
Min Temperature 58 °F 41 °F 21 °F (1962)
Degree Days  
Heating Degree Days 2 12  
Month to date heating degree days 201 234  
Since 1 July heating degree days 247 295  
Cooling Degree Days 0 0  
Month to date cooling degree days 11 11  
Year to date cooling degree days 1244 1027  
Growing Degree Days 14 (Base 50)    
Moisture  
Dew Point 55 °F    
Average Humidity 78    
Maximum Humidity 97    
Minimum Humidity 59    
Precipitation  
Precipitation 0.03 in 0.10 in 2.45 in (1924)
Month to date precipitation 1.22 2.68  
Year to date precipitation 26.12 34.49  
Snow  
Snow 0.00 in - - ()
Month to date snowfall 0.0  
Since 1 July snowfall 0.0  
Since 1 September snowfall 0.0  
Snow Depth 0.00 in    
Sea Level Pressure  
Sea Level Pressure 29.90 in    
Wind  
Wind Speed 12 mph (NNE)    
Max Wind Speed 18 mph    
Max Gust Speed 26 mph    
Visibility 9 miles    
Events Rain    
T = Trace of Precipitation, MM = Missing Value Source: NWS Daily Summary

Daily Weather History Graph

Daily Weather History Graph

Search for Another Location

Airport:

Trip Planner

Search our weather history database for the weather conditions in past years. The results will help you decide how hot, cold, wet, or windy it might be!

Date:

Astronomy

Oct. 27, 2012 Rise Set
Actual Time 7:36 AM EDT 6:23 PM EDT
Civil Twilight 7:10 AM EDT 6:50 PM EDT
Nautical Twilight 6:39 AM EDT 7:21 PM EDT
Astronomical Twilight 6:09 AM EDT 7:51 PM EDT
Moon 5:07 PM EDT 5:32 AM EDT
Length of Visible Light 11h 40m
Length of Day
10h 47m
Waxing Gibbous, 96% of the Moon is Illuminated
Oct 27
Waxing Gibbous
Oct 29
Full
Nov 6
Last Quarter
Nov 13
New
Nov 20
First Quarter

Hourly Weather History & Observations

Time (EDT) Temp. Dew Point Humidity Pressure Visibility Wind Dir Wind Speed Gust Speed Precip Events Conditions
12:18 AM 60.8 °F 57.2 °F 88% 30.03 in 9.0 mi NNE 6.9 mph - N/A   Overcast
12:54 AM 61.0 °F 57.9 °F 90% 30.01 in 8.0 mi NE 5.8 mph - N/A   Overcast
1:54 AM 60.1 °F 59.0 °F 96% 29.98 in 6.0 mi NNE 9.2 mph - N/A   Overcast
2:12 AM 60.8 °F 59.0 °F 94% 29.99 in 7.0 mi NNE 8.1 mph - N/A   Overcast
2:54 AM 60.1 °F 59.0 °F 96% 29.96 in 6.0 mi NNE 8.1 mph - N/A   Overcast
3:54 AM 59.0 °F 59.0 °F 100% 29.93 in 3.0 mi North 8.1 mph - 0.03 in Rain Light Rain
4:23 AM 60.8 °F 59.0 °F 94% 29.94 in 7.0 mi NNE 9.2 mph - 0.00 in   Overcast
4:54 AM 60.1 °F 59.0 °F 96% 29.92 in 8.0 mi NNE 9.2 mph - 0.00 in   Overcast
5:54 AM 60.1 °F 59.0 °F 96% 29.91 in 10.0 mi NNE 12.7 mph 18.4 mph N/A   Overcast
6:08 AM 60.8 °F 57.2 °F 88% 29.93 in 10.0 mi NNE 9.2 mph - N/A   Overcast
6:36 AM 59.0 °F 57.2 °F 94% 29.93 in 10.0 mi NE 10.4 mph - N/A   Overcast
6:54 AM 60.1 °F 57.9 °F 93% 29.92 in 10.0 mi NE 11.5 mph - N/A   Overcast
7:34 AM 59.0 °F 57.2 °F 94% 29.94 in 10.0 mi NNE 10.4 mph - N/A   Overcast
7:54 AM 59.0 °F 57.9 °F 96% 29.93 in 10.0 mi NNE 9.2 mph - N/A   Overcast
8:54 AM 59.0 °F 57.0 °F 93% 29.95 in 10.0 mi NE 13.8 mph 23.0 mph N/A   Overcast
9:42 AM 60.8 °F 57.2 °F 88% 29.95 in 10.0 mi NNE 13.8 mph - N/A   Overcast
9:54 AM 60.8 °F 55.4 °F 82% 29.95 in 10.0 mi NNE 15.0 mph 20.7 mph N/A   Overcast
10:27 AM 60.8 °F 55.4 °F 82% 29.94 in 10.0 mi NNE 13.8 mph - N/A   Overcast
10:54 AM 64.4 °F 55.4 °F 73% 29.93 in 10.0 mi NNE 11.5 mph 21.9 mph N/A   Mostly Cloudy
11:13 AM 64.4 °F 55.4 °F 73% 29.94 in 10.0 mi NE 13.8 mph - N/A   Mostly Cloudy
11:54 AM 63.0 °F 54.0 °F 72% 29.92 in 10.0 mi NNE 15.0 mph - N/A   Overcast
12:54 PM 66.0 °F 54.0 °F 65% 29.88 in 10.0 mi NNE 13.8 mph 20.7 mph N/A   Mostly Cloudy
1:40 PM 66.2 °F 53.6 °F 64% 29.88 in 10.0 mi NNE 11.5 mph - N/A   Mostly Cloudy
1:54 PM 68.0 °F 53.1 °F 59% 29.85 in 10.0 mi NNE 16.1 mph - N/A   Mostly Cloudy
2:54 PM 66.9 °F 53.1 °F 61% 29.84 in 10.0 mi NE 16.1 mph - N/A   Scattered Clouds
3:54 PM 66.9 °F 53.1 °F 61% 29.83 in 10.0 mi NE 15.0 mph - N/A   Partly Cloudy
4:54 PM 66.0 °F 53.1 °F 63% 29.83 in 10.0 mi NE 11.5 mph - N/A   Clear
5:54 PM 64.0 °F 52.0 °F 65% 29.82 in 10.0 mi NE 15.0 mph 21.9 mph N/A   Clear
6:54 PM 62.1 °F 50.0 °F 65% 29.82 in 10.0 mi NE 10.4 mph - N/A   Clear
7:54 PM 62.1 °F 48.9 °F 62% 29.82 in 10.0 mi NNE 12.7 mph - N/A   Clear
8:54 PM 61.0 °F 48.9 °F 64% 29.82 in 10.0 mi NNE 10.4 mph - N/A   Clear
9:54 PM 60.1 °F 48.9 °F 67% 29.83 in 10.0 mi North 9.2 mph - N/A   Clear
10:54 PM 59.0 °F 48.9 °F 69% 29.84 in 10.0 mi NNE 6.9 mph - N/A   Clear
11:54 PM 59.0 °F 48.0 °F 67% 29.82 in 10.0 mi NNE 8.1 mph - N/A   Clear